Location: Lac Lasalle
(46.0398°N, 74.1576°W)
Time: 19:45:56
(UTC-04:00)

ISS - Visible Passes

Search period start: 21 March 2019 00:00
Search period end: 31 March 2019 00:00
Orbit: 406 x 411 km, 51.6° (Epoch: 22 March)

Date Brightness Start Highest point End Pass type
(mag) Time Alt. Az. Time Alt. Az. Time Alt. Az.
21 Mar -2.1 20:04:12 10° S 20:06:26 17° SE 20:07:15 16° ESE visible
21 Mar -1.1 21:39:21 10° WSW 21:40:04 15° WSW 21:40:04 15° WSW visible
22 Mar -3.9 20:48:23 10° SW 20:51:38 63° SSE 20:51:53 60° ESE visible
23 Mar -3.2 19:57:36 10° SSW 20:00:41 37° SE 20:03:30 12° ENE visible
23 Mar -2.2 21:34:01 10° W 21:36:16 34° WNW 21:36:16 34° WNW visible
24 Mar -3.5 20:42:49 10° WSW 20:46:06 66° NNW 20:47:42 27° NE visible
24 Mar -0.4 22:20:05 10° WNW 22:20:28 12° WNW 22:20:28 12° WNW visible
25 Mar -3.9 19:51:44 10° WSW 19:55:01 81° SSE 19:58:20 10° ENE visible
25 Mar -2.3 21:28:47 10° WNW 21:31:44 33° NNW 21:31:44 33° NNW visible
26 Mar -2.7 20:37:29 10° W 20:40:37 40° NNW 20:42:53 16° NE visible
26 Mar -0.7 22:14:44 10° WNW 22:15:38 16° NW 22:15:38 16° NW visible
27 Mar -3.1 19:46:12 10° W 19:49:26 54° NNW 19:52:42 10° ENE visible
27 Mar -2.2 21:23:29 10° WNW 21:26:26 29° N 21:26:41 29° N visible
28 Mar -2.3 20:32:11 10° WNW 20:35:11 31° N 20:37:41 13° NE visible
28 Mar -1.0 22:09:11 10° WNW 22:10:25 19° NW 22:10:25 19° NW visible
29 Mar -2.4 21:18:01 10° WNW 21:21:01 31° N 21:21:22 30° NNE visible
30 Mar -2.2 20:26:46 10° WNW 20:29:44 29° N 20:32:16 13° ENE visible
30 Mar -1.4 22:03:29 10° WNW 22:05:00 24° NW 22:05:00 24° NW visible
